Location: Coopersdale
(40.3556°N, 78.9372°W)
Time: 03:35:15
(UTC+00:00)

Tiros 1 despin weight - Pass Details

Date: 22 January 2021
Orbit: 593 x 642 km, 48.2° (Epoch: 02 March)

Event Time Altitude Azimuth Distance (km) Brightness Sun altitude
Rises 19:28:39 0° 221° (SW) 2,888 ? 23.8°
Reaches altitude 10° 19:31:02 10° 215° (SW) 1,977 ? 23.6°
Maximum altitude 19:35:23 46° 142° (SE) 821 ? 23.2°
Drops below altitude 10° 19:39:41 10° 69° (ENE) 1,956 ? 22.7°
Sets 19:42:01 0° 64° (ENE) 2,854 ? 22.5°
